[Date Prev][Date Next][Thread Prev][Thread Next] - [Date Index][Thread Index][Author Index]
2 Line ISS Keps 10-1
- Subject: [sarex] 2 Line ISS Keps 10-1
- From: "Dave Larsen PhD" <doc@xxxxxxxxxxx>
- Date: Wed, 1 Oct 2003 02:18:30 -0700
ISS
1 25544U 98067A 03274.23870475 .00023001 00000-0 25432-3 0 5768
2 25544 51.6316 205.8585 0005587 311.8896 138.1272 15.62909262277572
----
Via the sarex mailing list at AMSAT.ORG courtesy of AMSAT-NA.
To unsubscribe, send "unsubscribe sarex" to Majordomo@amsat.org
AMSAT Home